Location: Arran
(51.9410°N, 101.7372°W)
Time: 07:16:17
(UTC+00:00)

SWISSCUBE - Pass Details

Date: 14 May 2025
Orbit: 685 x 693 km, 98.4° (Epoch: 20 June)

Event Time Altitude Azimuth Distance (km) Brightness Sun altitude
Rises 05:17:01 0° 19° (NNE) 3,075 ? -16.9°
Reaches altitude 10° 05:19:23 10° 26° (NNE) 2,155 ? -17.0°
Maximum altitude 05:23:53 43° 99° (E) 967 ? -17.3°
Enters shadow 05:25:31 32° 146° (SE) 1,193 ? -17.4°
